Location: Newark
(25.6108°S, 54.5803°W)
Time: 10:18:57
(UTC+00:00)

deb Explorer IX - Pass Details

Date: 31 October 2020
Orbit: 538 x 1104 km, 38.8° (Epoch: 23 November)

Event Time Altitude Azimuth Distance (km) Brightness Sun altitude
Rises 21:53:48 0° 243° (WSW) 3,275 ? -0.7°
Reaches altitude 10° 21:57:17 10° 223° (SW) 2,221 ? -1.5°
Maximum altitude 22:00:35 17° 183° (S) 1,694 ? -2.2°
Drops below altitude 10° 22:03:37 10° 142° (SE) 2,012 ? -2.9°
Sets 22:06:34 0° 120° (ESE) 2,833 ? -3.5°
